Flag for Russia Weather past 2 weeks in Kazan, Russia

Now
61 °F

Clear.


Feels Like: 61 °F
Forecast: 60 / 70 °F
Wind: 6 mph from Southwest

Location: Kazan'

Current Time: Aug 4, 2015 at 2:57:48 AM

Latest Report: Aug 4, 2015 at 2:30 AM


Visibility: 10 mi

Pressure: 30.01 "Hg

Humidity: 72%

Dew point: 52 °F

Location of KazanLocation

Historic Weather in Kazan — Graph

°F

Kazan temperature yesterday

Maximum temperature yesterday: 72 °F (at 1:30 PM)
Minimum temperature yesterday: 55 °F (at 3:30 AM)
Average temperature yesterday: 64 °F

Past Weeks' High & Low Weather Summary

 TemperatureHumidityPressure
High82 °F (Jul 29, 1:00 PM)100% (Jul 24, 1:30 AM)30.18 "Hg (Jul 24, 1:30 AM)
Low54 °F (Jul 20, 2:30 AM)37% (Jul 28, 12:30 PM)29.42 "Hg (Jul 21, 7:30 AM)
Average67 °F70%29.82 "Hg
* Reported Jul 20 2:00 AM — Aug 4 2:00 AM, Kazan, Weather by CustomWeather, © 2015

Note: Actual official high and low records may vary slightly from our data, if they occured in-between our weather recording intervals... More about our weather records

Advertising

Kazan weather history for previous 24 hours

 ConditionsComfort  
Time TempWeatherWind HumidityBarometerVisibility
2:00 AM
Tue, Aug 4
61 °FClear.6 mph72%30.01 "Hg10 mi
1:30 AM61 °FClear.6 mph72%30.01 "Hg10 mi
1:00 AM61 °FClear.6 mph72%30.01 "Hg10 mi
12:30 AM59 °FClear.6 mph77%30.04 "Hg10 mi
12:00 AM59 °FClear.6 mph77%30.04 "Hg10 mi
11:30 PM
Mon, Aug 3
61 °FPassing clouds.6 mph72%30.04 "HgN/A
11:00 PM59 °FClear.3 mph77%30.07 "Hg10 mi
10:30 PM59 °FClear.3 mph77%30.07 "Hg10 mi
10:00 PM57 °FClear.6 mph82%30.07 "Hg10 mi
9:30 PM59 °FClear.6 mph77%30.07 "Hg10 mi
9:00 PM59 °FClear.3 mph77%30.07 "Hg10 mi
8:30 PM63 °FSunny.3 mph64%30.09 "Hg10 mi
8:00 PM63 °FSunny.3 mph68%30.09 "Hg10 mi
7:30 PM64 °FSunny.6 mph64%30.09 "Hg10 mi
7:00 PM66 °FSunny.8 mph60%30.09 "Hg10 mi
6:30 PM68 °FSunny.10 mph56%30.09 "Hg10 mi
6:00 PM70 °FSunny.10 mph53%30.09 "Hg10 mi
5:30 PM70 °FSunny.13 mph50%30.09 "Hg10 mi
5:00 PM72 °FSunny.13 mph44%30.09 "Hg10 mi
4:30 PM72 °FSunny.13 mph44%30.12 "Hg10 mi
4:00 PM72 °FSunny.13 mph47%30.12 "Hg10 mi
3:30 PM72 °FSunny.13 mph47%30.12 "Hg10 mi
3:00 PM72 °FSunny.15 mph44%30.12 "Hg10 mi
2:30 PM72 °FSunny.15 mph47%30.12 "Hg10 mi
2:00 PM72 °FSunny.13 mph47%30.12 "Hg10 mi
1:30 PM72 °FPartly sunny.10 mph50%30.15 "HgN/A
1:00 PM70 °FSunny.15 mph53%30.15 "Hg10 mi
12:30 PM70 °FPartly sunny.15 mph53%30.15 "HgN/A
12:00 PM68 °FPartly sunny.13 mph56%30.15 "HgN/A
11:30 AM68 °FPartly sunny.13 mph56%30.15 "HgN/A
11:00 AM68 °FScattered clouds.13 mph53%30.15 "HgN/A
10:30 AM68 °FPassing clouds.15 mph56%30.15 "HgN/A
10:00 AM66 °FScattered clouds.13 mph56%30.18 "HgN/A
9:30 AM66 °FPassing clouds.13 mph60%30.15 "HgN/A
9:00 AM66 °FPassing clouds.13 mph64%30.15 "HgN/A
8:30 AM66 °FPassing clouds.13 mph64%30.18 "HgN/A
8:00 AM64 °FSunny.10 mph68%30.15 "Hg10 mi
6:30 AM61 °FScattered clouds.10 mph83%30.15 "HgN/A
6:00 AM61 °FScattered clouds.6 mph83%30.15 "HgN/A
5:30 AM57 °FScattered clouds.6 mph88%30.15 "HgN/A
5:00 AM57 °FSunny.3 mph88%30.15 "Hg10 mi
4:30 AM55 °FClear.3 mph88%30.15 "Hg10 mi
4:00 AM55 °FClear.3 mph88%30.15 "Hg10 mi
3:30 AM55 °FClear.3 mph88%30.15 "Hg10 mi
3:00 AM57 °FClear.6 mph82%30.15 "Hg10 mi
2:30 AM57 °FClear.6 mph82%30.15 "Hg10 mi
2:00 AM57 °FClear.6 mph82%30.12 "Hg10 mi
Weather by CustomWeather, © 2015

See weather overviewHow to use our weather pages